| time (UTC) | temp F | wind direction | speed MPH | gust MPH | rain 1hr in | rain 24hr in | rain mn in | humidity % | barometer mb |
| 20260505021555 | 64 | 200 | 3.0 | 7.0 | 0.00 | 0.00 | 0.00 | 50 | 1017.1 |
| 20260505020056 | 64 | 360 | 2.0 | 8.0 | 0.00 | 0.00 | 0.00 | 49 | 1017.1 |
| 20260505014607 | 65 | 360 | 2.0 | 5.0 | 0.00 | 0.00 | 0.00 | 48 | 1017.0 |
| 20260505013132 | 65 | 198 | 1.0 | 4.0 | 0.00 | 0.00 | 0.00 | 46 | 1017.0 |
| 20260505011603 | 66 | 184 | 2.0 | 7.0 | 0.00 | 0.00 | 0.00 | 45 | 1016.9 |
| 20260505010056 | 67 | 198 | 2.0 | 6.0 | 0.00 | 0.00 | 0.00 | 44 | 1016.7 |
| 20260505004601 | 67 | 199 | 2.0 | 6.0 | 0.00 | 0.00 | 0.00 | 43 | 1016.5 |
| 20260505003051 | 68 | 360 | 2.0 | 7.0 | 0.00 | 0.00 | 0.00 | 42 | 1016.4 |
| 20260505001601 | 68 | 235 | 1.0 | 8.0 | 0.00 | 0.00 | 0.00 | 41 | 1016.2 |
| 20260505000115 | 69 | 200 | 2.0 | 6.0 | 0.00 | 0.00 | 0.00 | 41 | 1016.3 |
| 20260504234555 | 70 | 360 | 2.0 | 10.0 | 0.00 | 0.00 | 0.00 | 40 | 1016.1 |
| 20260504233108 | 71 | 360 | 4.0 | 11.0 | 0.00 | 0.00 | 0.00 | 39 | 1016.0 |
| 20260504231555 | 72 | 232 | 4.0 | 12.0 | 0.00 | 0.00 | 0.00 | 38 | 1015.8 |
| 20260504230052 | 73 | 183 | 5.0 | 15.0 | 0.00 | 0.00 | 0.00 | 37 | 1015.8 |
| 20260504224557 | 73 | 177 | 4.0 | 12.0 | 0.00 | 0.00 | 0.00 | 37 | 1015.9 |
| 20260504223122 | 74 | 209 | 6.0 | 13.0 | 0.00 | 0.00 | 0.00 | 36 | 1015.9 |
| 20260504221554 | 74 | 140 | 3.0 | 11.0 | 0.00 | 0.00 | 0.00 | 36 | 1015.9 |
| 20260504220057 | 74 | 166 | 5.0 | 13.0 | 0.00 | 0.00 | 0.00 | 37 | 1016.0 |
| 20260504214552 | 75 | 232 | 6.0 | 14.0 | 0.00 | 0.00 | 0.00 | 35 | 1016.2 |
| 20260504213103 | 75 | 133 | 4.0 | 11.0 | 0.00 | 0.00 | 0.00 | 35 | 1016.2 |
| 20260504211552 | 75 | 226 | 4.0 | 10.0 | 0.00 | 0.00 | 0.00 | 36 | 1016.2 |
| 20260504210100 | 75 | 202 | 5.0 | 12.0 | 0.00 | 0.00 | 0.00 | 34 | 1016.2 |
| 20260504204557 | 75 | 200 | 5.0 | 12.0 | 0.00 | 0.00 | 0.00 | 36 | 1016.3 |
| 20260504203110 | 75 | 194 | 5.0 | 13.0 | 0.00 | 0.00 | 0.00 | 36 | 1016.4 |
| 20260504201559 | 75 | 252 | 6.0 | 11.0 | 0.00 | 0.00 | 0.00 | 35 | 1016.6 |
| 20260504200057 | 75 | 177 | 4.0 | 13.0 | 0.00 | 0.00 | 0.00 | 34 | 1017.0 |
| 20260504194552 | 74 | 155 | 6.0 | 13.0 | 0.00 | 0.00 | 0.00 | 35 | 1017.1 |
| 20260504193055 | 75 | 148 | 4.0 | 12.0 | 0.00 | 0.00 | 0.00 | 36 | 1017.3 |
| 20260504191558 | 74 | 193 | 3.0 | 12.0 | 0.00 | 0.00 | 0.00 | 35 | 1017.6 |
| 20260504190055 | 74 | 106 | 3.0 | 11.0 | 0.00 | 0.00 | 0.00 | 36 | 1017.6 |
| 20260504184558 | 74 | 235 | 4.0 | 9.0 | 0.00 | 0.00 | 0.00 | 37 | 1017.8 |
| 20260504183053 | 74 | 225 | 3.0 | 12.0 | 0.00 | 0.00 | 0.00 | 38 | 1018.0 |
| 20260504181554 | 75 | 275 | 4.0 | 10.0 | 0.00 | 0.00 | 0.00 | 38 | 1018.2 |
| 20260504180051 | 75 | 165 | 3.0 | 9.0 | 0.00 | 0.00 | 0.00 | 35 | 1018.5 |
| 20260504174559 | 72 | 139 | 6.0 | 13.0 | 0.00 | 0.00 | 0.00 | 39 | 1018.8 |
| 20260504173055 | 73 | 137 | 3.0 | 19.0 | 0.00 | 0.00 | 0.00 | 42 | 1018.9 |
| 20260504171555 | 74 | 294 | 4.0 | 10.0 | 0.00 | 0.00 | 0.00 | 40 | 1019.2 |
| 20260504081552 | 41 | 277 | 1.0 | 3.0 | 0.00 | 0.00 | 0.00 | 90 | 1018.3 |
| 20260504044602 | 49 | 192 | 1.0 | 3.0 | 0.00 | 0.00 | 0.00 | 75 | 1018.8 |
| 20260504043058 | 52 | 192 | 1.0 | 3.0 | 0.00 | 0.00 | 0.00 | 66 | 1018.6 |
| 20260504041554 | 54 | 360 | 1.0 | 3.0 | 0.00 | 0.00 | 0.00 | 62 | 1018.4 |
| 20260504040106 | 54 | 228 | 1.0 | 7.0 | 0.00 | 0.00 | 0.00 | 63 | 1018.6 |
| 20260504034613 | 57 | 221 | 2.0 | 6.0 | 0.00 | 0.00 | 0.00 | 58 | 1018.6 |
| 20260504033051 | 53 | 213 | 1.0 | 4.0 | 0.00 | 0.00 | 0.00 | 67 | 1018.6 |
| 20260504031548 | 50 | 294 | 1.0 | 3.0 | 0.00 | 0.00 | 0.00 | 73 | 1018.6 |
| 20260504030118 | 51 | 284 | 1.0 | 4.0 | 0.00 | 0.00 | 0.00 | 70 | 1018.7 |
| 20260504024558 | 49 | 284 | 1.0 | 3.0 | 0.00 | 0.00 | 0.00 | 74 | 1018.7 |
| 20260504023053 | 51 | 284 | 2.0 | 4.0 | 0.00 | 0.00 | 0.00 | 70 | 1018.7 |